period_start,C,m1,H,J0,J1,J2,J3,J4,J5,JA,JB,JC,JD,JJ,JK,JN,#
2014-01-06 00:00:56,0.30,5.92,0.00,25.27,26.90,29.67,5.89,30.38,1022.96,2038.29,1794.11,2044.06,2226.01,349.71,323.41,30.42,0000 0000 0000 0000 000000
2014-01-06 00:01:57,0.14,5.92,0.00,25.25,26.90,29.65,6.08,30.58,1022.96,2038.28,1794.05,2044.02,2226.00,350.36,323.87,30.43,0000 0000 0000 0000 000000
2014-01-06 00:02:57,0.01,5.92,0.00,25.26,26.90,29.65,5.85,30.38,1022.96,2038.28,1794.01,2044.00,2225.98,349.03,322.63,30.44,0000 0000 0000 0000 000000
2014-01-06 00:03:57,0.09,5.92,0.00,25.26,26.90,29.66,5.97,30.25,1022.96,2038.37,1793.97,2043.99,2225.91,349.35,322.92,30.44,0000 0000 0000 0000 000000
2014-01-06 00:04:58,0.07,5.92,0.00,25.28,26.90,29.66,5.92,30.42,1022.96,2038.43,1793.73,2043.98,2225.60,350.05,323.62,30.45,0000 0000 0000 0000 000000
2014-01-06 00:05:58,0.33,5.92,0.00,25.28,26.90,29.62,5.82,30.42,1022.96,2038.38,1793.33,2043.91,2225.24,350.16,323.24,30.45,0000 0000 0000 0000 000000
2014-01-06 00:06:58,0.16,5.92,0.00,25.27,26.90,29.60,5.77,30.17,1022.96,2038.27,1793.12,2043.52,2225.09,349.49,323.03,30.46,0000 0000 0000 0000 000000
2014-01-06 00:07:58,0.12,5.92,0.00,25.29,26.90,29.60,5.91,30.42,1022.96,2038.27,1793.04,2043.24,2225.03,350.24,323.69,30.46,0000 0000 0000 0000 000000
2014-01-06 00:08:58,0.16,5.92,0.00,25.28,26.90,29.59,6.15,30.38,1022.96,2038.20,1793.01,2043.10,2225.01,350.29,323.41,30.47,0000 0000 0000 0000 000000
2014-01-06 00:09:58,0.02,5.92,0.00,25.25,26.90,29.60,5.97,30.46,1022.96,2038.16,1792.98,2043.03,2224.98,350.09,323.38,30.48,0000 0000 0000 0000 000000
2014-01-06 00:10:59,0.01,5.92,0.00,25.25,26.90,29.61,6.07,30.29,1022.96,2038.11,1792.77,2043.01,2224.90,350.50,324.00,30.48,0000 0000 0000 0000 000000
2014-01-06 00:11:59,0.07,5.92,0.00,25.26,26.90,29.61,5.95,30.38,1022.96,2038.07,1792.39,2042.96,2224.50,349.88,323.51,30.49,0000 0000 0000 0000 000000
2014-01-06 00:12:59,0.24,5.93,0.00,25.27,26.90,29.62,5.96,30.38,1022.96,2038.05,1792.16,2042.95,2224.20,349.54,323.25,30.49,0000 0000 0000 0000 000000
2014-01-06 00:13:59,0.11,5.93,0.00,25.28,26.90,29.62,5.98,30.38,1022.95,2038.09,1792.06,2042.84,2224.07,350.49,323.66,30.50,0000 0000 0000 0000 000000
2014-01-06 00:14:59,0.16,5.93,0.00,25.28,26.90,29.64,5.83,30.58,1022.96,2038.09,1792.02,2042.52,2224.03,350.33,324.09,30.51,0000 0000 0000 0000 000000
2014-01-06 00:16:00,0.16,5.93,0.00,25.25,26.90,29.64,5.93,30.63,1022.95,2038.10,1792.00,2042.24,2224.01,349.08,322.67,30.51,0000 0000 0000 0000 000000
2014-01-06 00:17:00,0.13,5.93,0.00,25.24,26.90,29.64,5.92,30.79,1022.95,2038.12,1792.00,2042.12,2223.97,350.20,323.72,30.52,0000 0000 0000 0000 000000
2014-01-06 00:18:00,0.09,5.93,0.00,25.25,26.90,29.65,6.00,30.46,1022.96,2038.14,1791.96,2042.06,2223.96,349.76,323.73,30.52,0000 0000 0000 0000 000000
2014-01-06 00:19:00,0.03,5.93,0.00,25.25,26.90,29.66,5.87,30.46,1022.94,2038.15,1791.63,2042.02,2223.86,349.89,323.63,30.53,0000 0000 0000 0000 000000
2014-01-06 00:20:01,0.20,5.93,0.00,25.24,26.90,29.66,5.98,30.46,1022.94,2038.13,1791.29,2042.00,2223.54,350.18,323.70,30.54,0000 0000 0000 0000 000000
2014-01-06 00:21:01,0.25,5.93,0.00,25.27,26.90,29.64,5.83,30.17,1022.93,2038.11,1791.11,2041.98,2223.28,348.11,321.93,30.54,0000 0000 0000 0000 000000
2014-01-06 00:22:01,0.08,5.93,0.00,25.27,26.90,29.62,6.04,30.67,1022.90,2038.17,1791.04,2041.98,2223.13,349.41,322.91,30.55,0000 0000 0000 0000 000000
2014-01-06 00:23:01,0.12,5.93,0.00,25.25,26.90,29.65,5.91,30.46,1022.92,2038.23,1790.99,2041.92,2223.04,349.84,323.69,30.55,0000 0000 0000 0000 000000
2014-01-06 00:24:02,0.16,5.94,0.00,25.24,26.90,29.66,5.89,30.46,1022.88,2038.22,1790.97,2041.61,2223.01,349.70,323.05,30.56,0000 0000 0000 0000 000000
2014-01-06 00:25:02,0.09,5.94,0.00,25.24,26.90,29.67,5.88,30.42,1022.85,2038.16,1790.68,2041.27,2223.00,349.88,323.66,30.56,0000 0000 0000 0000 000000
2014-01-06 00:26:02,0.25,5.94,0.00,25.25,26.90,29.67,5.87,30.42,1022.79,2038.13,1790.34,2041.10,2222.96,349.94,323.57,30.57,0000 0000 0000 0000 000000
2014-01-06 00:27:02,0.15,5.94,0.00,25.25,26.90,29.66,6.00,30.63,1022.79,2038.10,1790.15,2041.03,2222.80,349.84,323.13,30.58,0000 0000 0000 0000 000000
2014-01-06 00:28:03,0.08,5.94,0.00,25.27,26.90,29.63,5.97,30.46,1022.65,2038.13,1790.06,2041.01,2222.56,350.15,323.54,30.58,0000 0000 0000 0000 000000
2014-01-06 00:29:03,0.15,5.94,0.00,25.26,26.90,29.63,5.88,30.42,1022.60,2038.17,1790.02,2041.00,2222.27,348.56,322.35,30.59,0000 0000 0000 0000 000000
2014-01-06 00:30:03,0.11,5.94,0.00,25.27,26.90,29.64,5.83,30.33,1022.61,2038.18,1790.00,2040.99,2222.11,349.85,323.47,30.59,0000 0000 0000 0000 000000
2014-01-06 00:31:03,0.10,5.94,0.00,25.26,26.90,29.62,5.87,30.50,1022.64,2038.24,1789.97,2040.98,2222.04,349.44,323.11,30.60,0000 0000 0000 0000 000000
2014-01-06 00:32:04,0.06,5.94,0.00,25.26,26.90,29.61,5.86,30.50,1022.73,2038.34,1789.77,2040.91,2222.01,349.27,322.77,30.61,0000 0000 0000 0000 000000
2014-01-06 00:33:04,0.23,5.94,0.00,25.25,26.90,29.56,6.15,30.50,1022.78,2038.32,1789.36,2040.58,2222.00,351.46,324.82,30.61,0000 0000 0000 0000 000000
2014-01-06 00:34:04,0.31,5.94,0.00,25.25,26.90,29.59,6.11,30.33,1022.77,2038.30,1789.14,2040.28,2221.98,350.71,324.33,30.62,0000 0000 0000 0000 000000
2014-01-06 00:35:04,0.18,5.95,0.00,25.24,26.90,29.59,6.06,30.50,1022.68,2038.33,1789.05,2040.12,2221.88,349.90,323.62,30.62,0000 0000 0000 0000 000000
2014-01-06 00:36:04,0.12,5.95,0.00,25.22,26.90,29.63,6.00,30.29,1022.64,2038.26,1789.02,2040.05,2221.55,350.43,323.85,30.63,0000 0000 0000 0000 000000
2014-01-06 00:37:05,0.07,5.95,0.00,25.22,26.90,29.64,6.17,30.67,1022.63,2038.27,1789.00,2040.02,2221.23,350.38,323.80,30.63,0000 0000 0000 0000 000000
2014-01-06 00:38:05,0.15,5.95,0.00,25.22,26.90,29.61,5.77,30.33,1022.71,2038.20,1788.77,2040.00,2221.08,349.00,322.56,30.64,0000 0000 0000 0000 000000
2014-01-06 00:39:05,-0.01,5.95,0.00,25.23,26.90,29.63,5.84,30.58,1022.77,2038.21,1788.40,2039.98,2221.03,349.72,323.23,30.65,0000 0000 0000 0000 000000
2014-01-06 00:40:05,0.25,5.95,0.00,25.23,26.90,29.62,5.92,30.67,1022.87,2038.32,1788.16,2039.96,2221.01,350.72,324.19,30.65,0000 0000 0000 0000 000000
2014-01-06 00:41:06,0.13,5.95,0.00,25.23,26.90,29.56,5.97,30.50,1022.90,2038.48,1788.06,2039.95,2220.99,350.23,323.74,30.66,0000 0000 0000 0000 000000
2014-01-06 00:42:06,0.23,5.95,0.00,25.22,26.90,29.57,5.91,30.50,1022.92,2038.50,1788.02,2039.72,2220.98,350.25,323.77,30.66,0000 0000 0000 0000 000000
2014-01-06 00:43:06,0.16,5.95,0.00,25.25,26.90,29.59,5.95,30.33,1022.95,2038.51,1787.99,2039.33,2220.84,349.87,323.42,30.67,0000 0000 0000 0000 000000
2014-01-06 00:44:06,0.25,5.95,0.00,25.25,26.90,29.60,5.88,30.63,1022.95,2038.53,1787.97,2039.16,2220.49,349.53,323.32,30.68,0000 0000 0000 0000 000000
2014-01-06 00:45:06,0.20,5.95,0.00,25.24,26.90,29.61,5.93,30.46,1022.95,2038.55,1787.75,2039.06,2220.21,350.34,323.43,30.68,0000 0000 0000 0000 000000
2014-01-06 00:46:07,0.19,5.96,0.00,25.23,26.90,29.60,5.94,30.46,1022.94,2038.43,1787.35,2039.02,2220.08,349.37,322.96,30.69,0000 0000 0000 0000 000000
2014-01-06 00:47:07,0.09,5.96,0.00,25.23,26.90,29.64,5.95,30.42,1022.89,2038.25,1787.14,2038.99,2220.03,350.10,323.62,30.69,0000 0000 0000 0000 000000
2014-01-06 00:48:07,-0.12,5.96,0.00,25.22,26.90,29.64,5.91,30.46,1022.91,2038.16,1787.05,2038.92,2220.01,349.97,323.95,30.70,0000 0000 0000 0000 000000
2014-01-06 00:49:08,0.01,5.96,0.00,25.22,26.90,29.59,5.85,30.63,1022.86,2038.14,1787.02,2038.76,2219.97,349.42,323.38,30.70,0000 0000 0000 0000 000000
2014-01-06 00:50:08,0.09,5.96,0.00,25.23,26.90,29.64,5.83,30.25,1022.82,2038.20,1786.94,2038.47,2219.92,349.65,323.48,30.71,0000 0000 0000 0000 000000
2014-01-06 00:51:08,0.24,5.96,0.00,25.23,26.90,29.65,5.85,30.29,1022.76,2038.21,1786.63,2038.19,2219.58,349.45,323.01,30.72,0000 0000 0000 0000 000000
2014-01-06 00:52:08,0.35,5.96,0.00,25.22,26.90,29.66,5.92,30.33,1022.73,2038.16,1786.31,2038.07,2219.22,349.52,323.04,30.72,0000 0000 0000 0000 000000
2014-01-06 00:53:09,0.20,5.96,0.00,25.23,26.90,29.65,5.88,30.54,1022.75,2038.14,1786.13,2038.02,2219.08,350.08,323.57,30.73,0000 0000 0000 0000 000000
2014-01-06 00:54:09,0.09,5.96,0.00,25.23,26.90,29.63,6.03,30.42,1022.75,2038.12,1786.04,2038.00,2219.03,350.30,323.40,30.73,0000 0000 0000 0000 000000
2014-01-06 00:55:09,0.02,5.96,0.00,25.22,26.90,29.58,5.95,30.54,1022.69,2038.18,1786.00,2038.00,2219.01,350.15,323.69,30.74,0000 0000 0000 0000 000000
2014-01-06 00:56:09,0.06,5.96,0.00,25.22,26.90,29.64,5.96,30.29,1022.69,2038.23,1785.98,2037.98,2219.00,349.51,323.19,30.75,0000 0000 0000 0000 000000
2014-01-06 00:57:10,0.06,5.96,0.00,25.23,26.90,29.66,5.85,30.42,1022.66,2038.14,1785.67,2037.86,2218.90,349.88,323.34,30.75,0000 0000 0000 0000 000000
2014-01-06 00:58:10,0.13,5.96,0.00,25.23,26.90,29.63,5.85,30.17,1022.73,2038.13,1785.30,2037.59,2218.60,349.89,323.64,30.76,0000 0000 0000 0000 000000
2014-01-06 00:59:10,0.34,5.97,0.00,25.24,26.90,29.62,5.98,30.50,1022.69,2038.10,1785.12,2037.26,2218.26,349.13,322.93,30.76,0000 0000 0000 0000 000000
2014-01-06 01:00:10,0.26,5.97,0.00,25.26,26.90,29.59,5.91,30.50,1022.74,2038.11,1785.05,2037.12,2218.13,351.95,325.25,30.77,0000 0000 0000 0000 000000
2014-01-06 01:01:10,0.11,5.97,0.00,25.25,26.90,29.59,5.91,30.25,1022.76,2038.15,1785.00,2037.05,2218.06,350.00,323.46,30.78,0000 0000 0000 0000 000000
2014-01-06 01:02:11,0.09,5.97,0.00,25.27,26.90,29.60,5.77,30.42,1022.77,2038.11,1784.95,2037.01,2218.02,349.07,322.59,30.78,0000 0000 0000 0000 000000
2014-01-06 01:03:11,0.01,5.97,0.00,25.26,26.90,29.59,5.92,30.42,1022.78,2038.11,1784.76,2036.99,2217.99,349.95,323.78,30.79,0000 0000 0000 0000 000000
2014-01-06 01:04:11,0.10,5.97,0.00,25.25,26.90,29.61,5.93,30.25,1022.72,2038.14,1784.38,2036.96,2217.92,349.36,323.34,30.79,0000 0000 0000 0000 000000
2014-01-06 01:05:12,0.16,5.97,0.00,25.26,26.90,29.59,6.03,30.46,1022.64,2038.15,1784.15,2036.90,2217.83,350.14,323.56,30.80,0000 0000 0000 0000 000000
2014-01-06 01:06:12,0.21,5.97,0.00,25.27,26.90,29.58,6.02,30.50,1022.61,2038.20,1784.06,2036.66,2217.53,349.86,323.27,30.80,0000 0000 0000 0000 000000
2014-01-06 01:07:12,0.23,5.97,0.00,25.26,26.90,29.59,5.92,30.46,1022.63,2038.16,1784.02,2036.35,2217.21,350.09,323.75,30.81,0000 0000 0000 0000 000000
2014-01-06 01:08:12,0.19,5.97,0.00,25.27,26.90,29.61,6.00,30.58,1022.60,2038.12,1783.98,2036.14,2217.08,350.44,323.54,30.82,0000 0000 0000 0000 000000
2014-01-06 01:09:13,0.10,5.97,0.00,25.29,26.90,29.61,5.93,30.46,1022.59,2038.08,1783.86,2036.05,2217.03,350.36,323.58,30.82,0000 0000 0000 0000 000000
2014-01-06 01:10:13,0.06,5.97,0.00,25.27,26.90,29.61,6.02,30.50,1022.53,2038.19,1783.62,2036.01,2217.01,349.98,323.68,30.83,0000 0000 0000 0000 000000
2014-01-06 01:11:13,0.22,5.98,0.00,25.27,26.90,29.59,5.87,30.38,1022.52,2038.17,1783.27,2036.00,2216.99,349.52,323.09,30.83,0000 0000 0000 0000 000000
2014-01-06 01:12:14,0.10,5.98,0.00,25.27,26.90,29.60,5.98,30.33,1022.54,2038.10,1783.10,2036.00,2216.92,349.61,323.01,30.84,0000 0000 0000 0000 000000
2014-01-06 01:13:14,0.03,5.98,0.00,25.28,26.90,29.60,6.07,30.54,1022.49,2038.09,1783.03,2035.97,2216.63,350.14,323.36,30.85,0000 0000 0000 0000 000000
2014-01-06 01:14:14,0.10,5.98,0.00,25.27,26.90,29.60,6.06,30.58,1022.49,2038.07,1783.00,2035.80,2216.28,350.23,323.57,30.85,0000 0000 0000 0000 000000
2014-01-06 01:15:15,0.16,5.98,0.00,25.26,26.90,29.62,5.78,30.46,1022.50,2038.09,1782.93,2035.46,2216.11,350.07,323.43,30.86,0000 0000 0000 0000 000000
2014-01-06 01:16:15,0.22,5.98,0.00,25.26,26.90,29.58,6.10,30.63,1022.51,2038.09,1782.82,2035.20,2216.05,350.89,324.20,30.86,0000 0000 0000 0000 000000
2014-01-06 01:17:15,0.20,5.98,0.00,25.25,26.90,29.58,6.10,30.67,1022.52,2038.17,1782.48,2035.08,2216.02,350.56,323.90,30.87,0000 0000 0000 0000 000000
2014-01-06 01:18:15,0.23,5.98,0.00,25.25,26.90,29.61,5.98,30.63,1022.53,2038.21,1782.19,2035.03,2216.00,349.62,323.40,30.87,0000 0000 0000 0000 000000
2014-01-06 01:19:15,0.21,5.98,0.00,25.25,26.90,29.59,5.82,30.54,1022.52,2038.21,1782.06,2035.00,2215.96,350.65,324.43,30.88,0000 0000 0000 0000 000000
2014-01-06 01:20:15,0.06,5.98,0.00,25.25,26.90,29.58,5.87,30.38,1022.50,2038.16,1782.02,2034.99,2215.76,349.24,322.68,30.89,0000 0000 0000 0000 000000
2014-01-06 01:21:16,0.04,5.98,0.00,25.24,26.90,29.54,5.95,30.33,1022.49,2038.08,1782.00,2034.96,2215.36,350.11,323.50,30.89,0000 0000 0000 0000 000000
2014-01-06 01:22:16,0.02,5.98,0.00,25.24,26.90,29.56,6.08,30.42,1022.52,2038.06,1781.95,2034.90,2215.18,350.21,323.90,30.90,0000 0000 0000 0000 000000
2014-01-06 01:23:16,0.09,5.98,0.00,25.24,26.90,29.59,6.05,30.38,1022.51,2038.10,1781.73,2034.72,2215.08,349.82,323.23,30.90,0000 0000 0000 0000 000000
2014-01-06 01:24:16,0.20,5.99,0.00,25.24,26.90,29.58,5.92,30.38,1022.49,2038.12,1781.45,2034.39,2215.03,349.43,322.77,30.91,0000 0000 0000 0000 000000
2014-01-06 01:25:17,0.29,5.99,0.00,25.25,26.90,29.59,5.97,30.50,1022.51,2038.07,1781.21,2034.17,2215.00,349.64,322.91,30.92,0000 0000 0000 0000 000000
2014-01-06 01:26:17,0.15,5.99,0.00,25.25,26.90,29.62,5.95,30.29,1022.51,2038.09,1781.08,2034.07,2214.99,350.55,324.00,30.92,0000 0000 0000 0000 000000
2014-01-06 01:27:17,0.09,5.99,0.00,25.22,26.90,29.60,6.07,30.21,1022.51,2038.10,1781.02,2034.02,2214.96,350.54,323.92,30.93,0000 0000 0000 0000 000000
2014-01-06 01:28:18,0.05,5.99,0.00,25.22,26.90,29.59,5.98,30.33,1022.51,2038.07,1780.98,2034.00,2214.69,350.12,323.78,30.93,0000 0000 0000 0000 000000
2014-01-06 01:29:18,0.08,5.99,0.00,25.21,26.90,29.60,5.97,30.46,1022.49,2038.05,1780.75,2033.99,2214.30,350.17,323.61,30.94,0000 0000 0000 0000 000000
2014-01-06 01:30:18,0.17,5.99,0.00,25.05,26.90,29.60,6.02,30.25,1022.51,2038.09,1780.38,2033.94,2214.11,349.93,323.52,30.95,0000 0000 0000 0000 000000
2014-01-06 01:31:18,0.26,5.99,0.00,24.52,26.90,29.55,6.02,30.50,1022.50,2038.07,1780.14,2033.63,2214.04,349.77,324.09,30.95,0000 0000 0000 0000 000000
2014-01-06 01:32:19,0.23,5.99,0.00,24.16,26.90,29.64,5.98,30.46,1022.51,2038.05,1780.04,2033.31,2214.00,350.03,324.58,30.96,0000 0000 0000 0000 000000
2014-01-06 01:33:19,0.15,5.99,0.00,23.97,26.90,29.67,6.24,30.63,1022.52,2038.04,1780.00,2033.14,2213.98,351.09,326.02,30.96,0000 0000 0000 0000 000000
2014-01-06 01:34:19,0.08,6.00,0.00,24.29,26.90,29.67,6.00,30.33,1022.52,2038.05,1779.98,2033.06,2213.83,349.88,324.24,30.97,0000 0000 0000 0000 000000
2014-01-06 01:35:19,0.12,6.00,0.00,24.55,26.90,29.68,5.96,30.42,1022.53,2038.07,1779.83,2033.02,2213.41,350.49,324.61,30.97,0000 0000 0000 0000 000000
2014-01-06 01:36:20,0.19,6.00,0.00,24.66,26.90,29.72,6.03,30.29,1022.52,2038.07,1779.45,2033.00,2213.17,350.02,324.06,30.98,0000 0000 0000 0000 000000
2014-01-06 01:37:20,0.20,6.00,0.00,24.75,26.90,29.73,5.92,30.46,1022.53,2038.03,1779.16,2032.96,2213.06,350.02,324.21,30.99,0000 0000 0000 0000 000000
2014-01-06 01:38:20,0.13,6.00,0.00,24.80,26.90,29.70,6.13,30.50,1022.51,2038.01,1779.05,2032.75,2213.02,350.48,324.32,30.99,0000 0000 0000 0000 000000
2014-01-06 01:39:21,0.11,6.00,0.00,24.82,26.90,29.72,6.08,30.42,1022.50,2038.02,1779.00,2032.45,2213.00,350.35,324.17,31.00,0000 0000 0000 0000 000000
2014-01-06 01:40:21,0.15,6.00,0.00,24.84,26.89,29.78,5.83,30.38,1022.51,2038.05,1778.95,2032.26,2212.98,348.72,323.36,31.00,0000 0000 0000 0000 000000
2014-01-06 01:41:21,0.18,6.00,0.00,24.83,26.89,29.78,5.99,30.50,1022.50,2038.11,1778.61,2032.15,2212.97,349.58,323.76,31.01,0000 0000 0000 0000 000000
2014-01-06 01:42:21,0.21,6.00,0.00,24.84,26.88,29.79,5.98,30.54,1022.49,2038.11,1778.26,2032.07,2212.85,350.62,324.02,31.02,0000 0000 0000 0000 000000
2014-01-06 01:43:22,0.21,6.00,0.00,24.88,26.88,29.75,5.89,30.54,1022.49,2038.08,1778.10,2032.02,2212.51,349.82,323.47,31.02,0000 0000 0000 0000 000000
2014-01-06 01:44:22,0.14,6.01,0.00,24.88,26.87,29.70,5.91,30.38,1022.50,2038.11,1778.03,2032.00,2212.23,349.88,323.65,31.03,0000 0000 0000 0000 000000
2014-01-06 01:45:22,0.10,6.01,0.00,24.89,26.87,29.70,5.97,30.42,1022.50,2038.16,1778.01,2032.00,2212.11,349.65,323.45,31.03,0000 0000 0000 0000 000000
2014-01-06 01:46:23,0.13,6.01,0.00,24.91,26.87,29.66,6.02,30.46,1022.48,2038.35,1777.95,2032.00,2212.04,350.89,324.73,31.04,0000 0000 0000 0000 000000
2014-01-06 01:47:23,0.21,6.01,0.00,24.93,26.87,29.65,5.97,30.50,1022.49,2038.34,1777.60,2031.97,2212.01,349.61,323.22,31.04,0000 0000 0000 0000 000000
2014-01-06 01:48:23,0.16,6.01,0.00,24.94,26.87,29.61,6.00,30.38,1022.50,2038.34,1777.27,2031.91,2212.00,350.43,324.12,31.05,0000 0000 0000 0000 000000
2014-01-06 01:49:24,0.14,6.01,0.00,24.94,26.87,29.63,5.96,30.58,1022.49,2038.38,1777.10,2031.59,2211.99,349.75,323.49,31.06,0000 0000 0000 0000 000000
2014-01-06 01:50:24,0.21,6.01,0.00,24.92,26.87,29.61,5.99,30.46,1022.49,2038.25,1777.04,2031.27,2211.82,351.17,324.83,31.06,0000 0000 0000 0000 000000
2014-01-06 01:51:24,0.12,6.01,0.00,24.85,26.87,29.61,6.00,30.29,1022.48,2038.20,1777.01,2031.11,2211.42,351.64,325.32,31.07,0000 0000 0000 0000 000000
2014-01-06 01:52:25,0.12,6.01,0.00,24.76,26.86,29.61,5.85,30.50,1022.53,2038.32,1776.95,2031.05,2211.20,348.53,322.56,31.07,0000 0000 0000 0000 000000
2014-01-06 01:53:25,0.22,6.01,0.00,24.66,26.85,29.62,6.03,30.63,1022.50,2038.47,1776.63,2031.02,2211.08,350.36,324.36,31.08,0000 0000 0000 0000 000000
2014-01-06 01:54:25,0.32,6.02,0.00,24.67,26.85,29.62,5.83,30.46,1022.52,2038.45,1776.27,2031.00,2211.04,350.28,324.27,31.09,0000 0000 0000 0000 000000
2014-01-06 01:55:25,0.16,6.02,0.00,24.66,26.85,29.65,5.88,30.71,1022.52,2038.45,1776.10,2031.00,2211.01,350.85,324.82,31.09,0000 0000 0000 0000 000000
2014-01-06 01:56:25,0.02,6.02,0.00,24.59,26.85,29.66,6.16,30.79,1022.53,2038.40,1776.03,2030.93,2211.00,351.54,325.53,31.10,0000 0000 0000 0000 000000
2014-01-06 01:57:26,0.03,6.02,0.00,24.60,26.85,29.71,5.98,31.21,1022.55,2038.34,1775.99,2030.59,2211.00,349.54,323.68,31.10,0000 0000 0000 0000 000000
2014-01-06 01:58:26,0.12,6.02,0.00,24.65,26.85,29.73,5.85,30.96,1022.49,2038.39,1775.93,2030.25,2210.88,349.18,323.79,31.11,0000 0000 0000 0000 000000
2014-01-06 01:59:26,0.26,6.02,0.00,24.64,26.84,29.76,5.91,30.71,1022.51,2038.54,1775.69,2030.09,2210.54,350.17,324.31,31.12,0000 0000 0000 0000 000000
2014-01-06 02:00:27,0.38,6.02,0.00,24.65,26.83,29.75,5.90,30.58,1022.52,2038.63,1775.33,2030.04,2210.25,350.02,323.68,31.12,0000 0000 0000 0000 000000
2014-01-06 02:01:27,0.29,6.02,0.00,24.64,26.82,29.70,6.06,30.88,1022.49,2038.71,1775.13,2030.01,2210.11,350.93,324.89,31.13,0000 0000 0000 0000 000000
2014-01-06 02:02:27,0.21,6.02,0.00,24.65,26.82,29.71,5.99,30.83,1022.49,2038.75,1775.05,2030.00,2210.04,349.92,324.09,31.13,0000 0000 0000 0000 000000
2014-01-06 02:03:27,0.13,6.03,0.00,24.65,26.82,29.69,5.98,30.88,1022.51,2038.84,1775.02,2030.00,2210.01,349.41,323.40,31.14,0000 0000 0000 0000 000000
2014-01-06 02:04:28,0.09,6.03,0.00,24.64,26.82,29.68,5.84,30.63,1022.51,2038.93,1774.98,2029.98,2209.99,350.25,324.28,31.14,0000 0000 0000 0000 000000
2014-01-06 02:05:28,0.10,6.03,0.00,24.63,26.82,29.66,6.02,30.63,1022.48,2038.95,1774.86,2029.97,2209.98,349.42,323.64,31.15,0000 0000 0000 0000 000000
2014-01-06 02:06:28,0.12,6.03,0.00,24.65,26.81,29.67,5.98,30.54,1022.50,2038.94,1774.55,2029.87,2209.95,350.46,324.46,31.16,0000 0000 0000 0000 000000
2014-01-06 02:07:29,0.18,6.03,0.00,24.66,26.80,29.69,5.93,30.79,1022.48,2038.96,1774.25,2029.59,2209.85,349.65,323.84,31.16,0000 0000 0000 0000 000000
2014-01-06 02:08:29,0.25,6.03,0.00,24.66,26.80,29.64,5.93,30.75,1022.50,2038.97,1774.10,2029.30,2209.61,349.00,323.26,31.17,0000 0000 0000 0000 000000
2014-01-06 02:09:29,0.24,6.03,0.00,24.65,26.80,29.60,6.02,30.67,1022.50,2038.96,1774.03,2029.11,2209.29,350.36,324.50,31.17,0000 0000 0000 0000 000000
2014-01-06 02:10:29,0.18,6.03,0.00,24.65,26.80,29.58,5.92,30.96,1022.48,2038.97,1774.00,2029.05,2209.12,349.63,324.13,31.18,0000 0000 0000 0000 000000
2014-01-06 02:11:30,0.09,6.03,0.00,24.65,26.79,29.59,5.93,31.08,1022.51,2038.96,1773.94,2029.01,2209.04,349.99,323.94,31.19,0000 0000 0000 0000 000000
2014-01-06 02:12:30,0.07,6.03,0.00,24.61,26.78,29.60,5.97,31.04,1022.48,2038.97,1773.61,2029.00,2209.01,349.77,323.86,31.19,0000 0000 0000 0000 000000
2014-01-06 02:13:30,0.15,6.04,0.00,24.62,26.77,29.57,5.90,30.79,1022.49,2038.96,1773.25,2029.00,2209.00,349.74,323.82,31.20,0000 0000 0000 0000 000000
2014-01-06 02:14:31,0.13,6.04,0.00,24.64,26.77,29.58,5.85,30.92,1022.48,2038.97,1773.10,2028.98,2208.99,349.76,323.63,31.20,0000 0000 0000 0000 000000
2014-01-06 02:15:31,0.08,6.04,0.00,24.62,26.77,29.59,5.96,30.75,1022.48,2038.99,1773.04,2028.85,2208.81,349.78,324.18,31.21,0000 0000 0000 0000 000000
2014-01-06 02:16:31,0.12,6.04,0.00,24.61,26.77,29.61,5.98,30.79,1022.48,2038.98,1773.01,2028.75,2208.54,350.03,324.10,31.21,0000 0000 0000 0000 000000
2014-01-06 02:17:31,0.14,6.04,0.00,24.61,26.75,29.61,5.98,30.92,1022.49,2038.99,1773.00,2028.47,2208.27,348.98,323.43,31.22,0000 0000 0000 0000 000000
2014-01-06 02:18:32,0.18,6.04,0.00,24.64,26.75,29.61,5.98,30.63,1022.48,2038.99,1772.96,2028.20,2208.11,350.03,323.94,31.23,0000 0000 0000 0000 000000
2014-01-06 02:19:32,0.17,6.04,0.00,24.65,26.75,29.57,5.92,30.75,1022.48,2038.99,1772.75,2028.08,2208.04,349.80,324.09,31.23,0000 0000 0000 0000 000000
2014-01-06 02:20:32,0.15,6.04,0.00,24.64,26.75,29.54,5.93,30.75,1022.48,2038.99,1772.42,2028.03,2208.00,350.12,324.15,31.24,0000 0000 0000 0000 000000
2014-01-06 02:21:33,0.16,6.04,0.00,24.63,26.74,29.53,5.83,30.50,1022.49,2038.98,1772.18,2028.01,2207.98,349.59,324.07,31.24,0000 0000 0000 0000 000000
2014-01-06 02:22:33,0.10,6.04,0.00,24.62,26.72,29.54,6.05,30.67,1022.49,2038.98,1772.07,2028.00,2207.97,349.90,324.65,31.25,0000 0000 0000 0000 000000
2014-01-06 02:23:33,0.06,6.04,0.00,24.64,26.72,29.54,5.98,30.88,1022.49,2038.99,1772.03,2028.00,2207.88,349.55,323.56,31.26,0000 0000 0000 0000 000000
2014-01-06 02:24:33,0.06,6.04,0.00,24.67,26.72,29.47,6.01,30.67,1022.48,2038.99,1772.01,2027.98,2207.54,350.87,324.82,31.26,0000 0000 0000 0000 000000
2014-01-06 02:25:34,0.09,6.04,0.00,24.65,26.72,29.50,6.00,30.29,1022.48,2038.99,1771.98,2027.96,2207.24,349.74,323.79,31.27,0000 0000 0000 0000 000000
2014-01-06 02:26:34,0.09,6.04,0.00,24.65,26.72,29.47,5.92,30.79,1022.48,2038.99,1771.95,2027.81,2207.09,350.54,324.53,31.27,0000 0000 0000 0000 000000
2014-01-06 02:27:34,0.13,6.05,0.00,24.65,26.70,29.48,6.02,30.58,1022.48,2038.99,1771.61,2027.45,2207.04,350.35,324.16,31.28,0000 0000 0000 0000 000000
2014-01-06 02:28:34,0.27,6.05,0.00,24.64,26.70,29.53,5.92,30.58,1022.49,2038.99,1771.30,2027.21,2207.01,349.08,323.18,31.29,0000 0000 0000 0000 000000
2014-01-06 02:29:35,0.25,6.05,0.00,24.65,26.70,29.51,5.77,30.42,1022.49,2038.99,1771.11,2027.08,2207.00,349.40,323.47,31.29,0000 0000 0000 0000 000000
2014-01-06 02:30:35,0.14,6.05,0.00,24.65,26.70,29.52,6.16,30.71,1022.49,2038.99,1771.04,2027.02,2206.98,350.02,324.05,31.30,0000 0000 0000 0000 000000
2014-01-06 02:31:35,0.06,6.05,0.00,24.63,26.69,29.47,5.97,30.54,1022.49,2038.99,1771.01,2027.01,2206.90,350.29,324.32,31.30,0000 0000 0000 0000 000000
2014-01-06 02:32:36,0.04,6.05,0.00,24.66,26.68,29.42,6.02,30.67,1022.48,2038.99,1771.00,2027.00,2206.60,350.43,324.42,31.31,0000 0000 0000 0000 000000
2014-01-06 02:33:36,0.07,6.05,0.00,24.67,26.67,29.41,6.12,30.63,1022.50,2038.99,1770.93,2026.99,2206.28,350.84,324.80,31.31,0000 0000 0000 0000 000000
2014-01-06 02:34:36,0.13,6.05,0.00,24.67,26.67,29.40,6.03,30.42,1022.52,2038.99,1770.61,2026.97,2206.11,350.39,324.38,31.32,0000 0000 0000 0000 000000
2014-01-06 02:35:36,0.17,6.05,0.00,24.66,26.67,29.37,5.88,30.42,1022.51,2038.99,1770.29,2026.88,2206.05,349.99,324.06,31.33,0000 0000 0000 0000 000000
2014-01-06 02:36:37,0.19,6.05,0.00,24.67,26.67,29.37,6.08,30.33,1022.50,2038.99,1770.12,2026.60,2206.01,350.55,324.53,31.33,0000 0000 0000 0000 000000